Simultaneous Nadir Overpasses (SNOs) Predictions

Prediction of SNOs between FY3D and AQUA Satellite Orbit:

Table of predicted SNOs for the next 14.0 days since TLE Epoch: 10/19/2024
Index Date (FY3D) Time (FY3D) Lat,Lon (FY3D) SZA (FY3D ) Date (AQUA) Time (AQUA) Lat,Lon (AQUA) SZA (AQUA ) Distance(km) Time Diff (sec)
1 10/21/2024 13:45:34 79.62, -44.35 90.86 10/21/2024 13:46:37 79.62, -44.38 90.85 0.62 63
2 10/21/2024 14:36:12 -79.39, 125.00 89.44 10/21/2024 14:35:51 -79.39, 124.93 89.43 1.43 21
3 10/24/2024 00:58:11 79.63, 147.42 91.74 10/24/2024 00:59:02 79.62, 147.53 91.72 2.39 51
4 10/24/2024 01:48:50 -79.43, -43.49 88.52 10/24/2024 01:48:17 -79.43, -43.40 88.52 1.83 33
5 10/26/2024 12:10:44 79.54, -19.82 92.45 10/26/2024 12:11:20 79.54, -19.88 92.45 1.31 36
6 10/26/2024 13:01:22 -79.30, 149.51 87.84 10/26/2024 13:00:34 -79.31, 149.43 87.83 1.58 48
7 10/28/2024 23:23:19 79.55, 171.96 93.29 10/28/2024 23:23:35 79.55, 172.02 93.29 1.29 16
8 10/29/2024 00:13:57 -79.32, -18.71 87.00 10/29/2024 00:12:49 -79.32, -18.65 87.00 1.30 68
9 10/31/2024 09:46:58 -81.08, 158.51 81.46 10/31/2024 09:48:11 -81.70, 158.54 81.09 69.06 73



Historial Predications of SNOs between FY3D and AQUA
